Weather History for KDAL - August, 2013

Change the Weather History Date:

Friday, August 2, 2013

  Actual Average (KDFW) Record (KDFW)
Temperature  
Mean Temperature 92 °F 86 °F  
Max Temperature 104 °F 97 °F 110 °F (2011)
Min Temperature 82 °F 76 °F 62 °F (1965)
Degree Days  
Heating Degree Days 0 0  
Month to date heating degree days 0  
Since 1 June heating degree days 0  
Since 1 July heating degree days 0  
Cooling Degree Days 27 21  
Month to date cooling degree days 42  
Year to date cooling degree days 1586  
Since 1 June cooling degree days 1164  
Growing Degree Days 42 (Base 50)    
Moisture  
Dew Point 66 °F    
Average Humidity 42    
Maximum Humidity 63    
Minimum Humidity 27    
Precipitation  
Precipitation 0.00 in 0.05 in 1.99 in (1962)
Month to date precipitation 0.10  
Year to date precipitation 22.30  
Sea Level Pressure  
Sea Level Pressure 29.88 in    
Wind  
Wind Speed 10 mph (South)    
Max Wind Speed 16 mph    
Max Gust Speed 18 mph    
Visibility 10 miles    
Events      
T = Trace of Precipitation, MM = Missing Value Source: NWS Daily Summary

Daily Weather History Graph

Daily Weather History Graph

Search for Another Location

Airport or City:

Trip Planner

Search our weather history database for the weather conditions in past years. The results will help you decide how hot, cold, wet, or windy it might be!

Date:

Astronomy

Aug. 02, 2013 Rise Set
Actual Time 6:41 AM CDT 8:24 PM CDT
Civil Twilight 6:15 AM CDT 8:51 PM CDT
Nautical Twilight 5:42 AM CDT 9:23 PM CDT
Astronomical Twilight 5:08 AM CDT 9:57 PM CDT
Moon 3:06 AM CDT (8/2) 5:21 PM CDT (8/2)
Length of Visible Light 14h 36m
Length of Day
13h 42m
Waning Crescent, 15% of the Moon is Illuminated
Aug 2
Waning Crescent
Aug 6
New
Aug 14
First Quarter
Aug 20
Full
Aug 28
Last Quarter

Hourly Weather History & Observations

Time (CDT) Temp. Heat Index Dew Point Humidity Pressure Visibility Wind Dir Wind Speed Gust Speed Precip Events Conditions
12:53 AM 88.0 °F 90.7 °F 66.9 °F 49% 29.91 in 10.0 mi SE 15.0 mph - N/A   Scattered Clouds
1:53 AM 86.0 °F 89.4 °F 68.0 °F 55% 29.91 in 10.0 mi SE 12.7 mph - N/A   Scattered Clouds
2:53 AM 86.0 °F 89.4 °F 68.0 °F 55% 29.90 in 10.0 mi SE 10.4 mph - N/A   Scattered Clouds
3:53 AM 84.0 °F 87.8 °F 69.1 °F 61% 29.89 in 10.0 mi SE 9.2 mph - N/A   Partly Cloudy
4:53 AM 84.0 °F 87.8 °F 69.1 °F 61% 29.89 in 10.0 mi SSE 8.1 mph - N/A   Scattered Clouds
5:53 AM 82.9 °F 86.5 °F 69.1 °F 63% 29.90 in 10.0 mi SSE 10.4 mph - N/A   Mostly Cloudy
6:53 AM 82.9 °F 86.5 °F 69.1 °F 63% 29.90 in 10.0 mi South 6.9 mph - N/A   Mostly Cloudy
7:53 AM 84.0 °F 87.8 °F 69.1 °F 61% 29.90 in 10.0 mi SSE 6.9 mph - N/A   Mostly Cloudy
8:53 AM 88.0 °F 91.4 °F 68.0 °F 51% 29.91 in 10.0 mi South 4.6 mph - N/A   Mostly Cloudy
9:53 AM 91.9 °F 95.9 °F 68.0 °F 45% 29.91 in 10.0 mi SSW 6.9 mph - N/A   Mostly Cloudy
10:53 AM 96.1 °F 99.9 °F 66.9 °F 38% 29.91 in 10.0 mi SSW 6.9 mph - N/A   Scattered Clouds
11:53 AM 98.1 °F 101.2 °F 64.9 °F 34% 29.93 in 10.0 mi SW 10.4 mph - N/A   Scattered Clouds
12:53 PM 100.0 °F 104.2 °F 66.0 °F 33% 29.91 in 10.0 mi SW 9.2 mph - N/A   Scattered Clouds
1:53 PM 102.0 °F 106.6 °F 66.0 °F 31% 29.88 in 10.0 mi SW 9.2 mph 18.4 mph N/A   Scattered Clouds
2:53 PM 100.9 °F 104.6 °F 64.9 °F 31% 29.87 in 10.0 mi SSE 9.2 mph - N/A   Scattered Clouds
3:53 PM 102.9 °F 106.1 °F 64.0 °F 28% 29.85 in 10.0 mi South 8.1 mph 18.4 mph N/A   Mostly Cloudy
4:53 PM 102.9 °F 105.5 °F 63.0 °F 27% 29.84 in 10.0 mi South 9.2 mph - N/A   Scattered Clouds
5:53 PM 102.0 °F 103.9 °F 62.1 °F 27% 29.83 in 10.0 mi South 9.2 mph - N/A   Scattered Clouds
6:53 PM 100.9 °F 102.7 °F 62.1 °F 28% 29.83 in 10.0 mi SSE 11.5 mph - N/A   Partly Cloudy
7:53 PM 99.0 °F 100.5 °F 62.1 °F 30% 29.84 in 10.0 mi SSE 16.1 mph - N/A   Mostly Cloudy
8:53 PM 97.0 °F 97.8 °F 62.1 °F 31% 29.86 in 10.0 mi South 10.4 mph - N/A   Partly Cloudy
9:53 PM 93.9 °F 94.8 °F 62.1 °F 35% 29.87 in 10.0 mi South 8.1 mph - N/A   Mostly Cloudy
10:53 PM 93.9 °F 95.2 °F 63.0 °F 36% 29.89 in 10.0 mi South 9.2 mph - N/A   Partly Cloudy
11:53 PM 91.9 °F 93.3 °F 64.0 °F 39% 29.89 in 10.0 mi South 9.2 mph - N/A   Clear